Probability
100 94 94 94 100 100 100 100 100 100 100 100 100 100 100 100 94 87 87 87 84 87 87 84 97 97 97 84 71 84 81 84 87 77 71 55 81 90 94 87 71 65 55
90 100 97 97 100 100 100 100 100 100 100 100 100 100 100 97 94 94 87 87 81 71 68 84 77 87 87 74 77 71 65 61 61 68 55 65 81 90 32 84 77 39 19
84 94 100 100 100 100 100 100 100 100 100 100 100 97 97 94 94 94 94 87 68 74 74 65 65 77 68 68 68 52 45 39 35 45 42 29 42 45 84 87 65 39 19
81 97 100 100 100 100 100 100 100 100 100 100 100 100 97 97 97 97 97 94 90 77 74 61 58 58 61 52 45 32 42 39 26 29 39 35 32 23 19 74 84 71 45
77 87 87 94 97 97 100 100 100 100 100 100 100 100 100 100 100 97 97 97 97 81 65 48 48 48 42 35 32 19 26 26 23 16 32 45 32 29 39 10 29 52 65
42 61 65 81 84 94 94 100 100 100 100 97 97 97 97 97 97 97 97 94 90 81 52 39 39 32 29 19 23 16 16 16 13 19 26 32 42 45 48 32 42 45 35
29 35 48 52 71 84 87 90 94 94 90 90 90 90 97 94 81 81 84 81 74 61 45 23 26 23 26 19 10 13 10 10 3 19 23 29 29 48 35 26 23 29 29
16 19 23 32 42 45 65 77 77 81 81 81 77 77 84 77 74 71 61 61 61 35 26 16 13 10 16 10 10 6 6 3 3 3 19 32 26 42 42 29 13 10 29
6 6 13 23 32 32 39 48 61 61 48 55 68 68 65 65 58 42 35 29 26 10 3 3 6 0 0 0 3 3 3 6 3 0 3 13 32 48 45 29 26 6 0
0 0 6 13 16 23 29 29 35 42 39 32 39 13 32 29 26 19 13 6 6 0 0 0 0 0 0 0 0 0 0 0 0 3 6 16 23 35 45 55 58 42 10
0 0 3 3 3 13 13 13 16 16 16 16 6 6 6 3 3 3 0 0 0 0 0 0 0 0 0 0 0 0 0 0 0 0 0 0 3 3 29 55 68 58 45
0 0 0 3 3 3 6 3 10 6 0 0 0 0 0 0 0 0 0 0 0 0 0 0 0 0 0 0 0 0 0 0 0 0 0 0 0 3 6 23 39 61 52
0 0 0 0 0 3 0 0 0 0 0 0 0 0 0 0 0 0 0 0 0 0 0 0 0 0 0 0 0 0 0 0 0 0 0 0 0 0 0 6 13 23 23
0 0 0 0 0 0 0 0 0 0 0 0 0 0 0 0 0 0 0 0 0 0 0 0 0 0 0 0 0 0 0 0 0 0 0 0 0 0 0 0 3 3 13
0 0 0 0 0 0 0 0 0 0 0 0 0 0 0 0 0 0 0 0 0 0 0 0 0 0 0 0 0 0 0 0 0 0 0 0 0 0 0 0 0 0 3
0 0 0 0 0 0 0 0 0 0 0 0 0 0 0 0 0 0 0 0 0 0 0 0 0 0 0 0 0 0 0 0 0 0 0 0 0 0 0 0 0 0 0
0 0 0 0 0 0 0 0 0 0 0 0 0 0 0 0 0 0 0 0 0 0 0 0 0 0 0 0 0 0 0 0 0 0 0 0 0 0 0 0 0 0 0
0 0 0 0 0 0 0 0 0 0 0 0 0 0 0 0 0 0 0 0 0 0 0 0 0 0 0 0 0 0 0 0 0 0 0 0 0 0 0 0 0 0 0
0 0 0 0 0 0 0 0 0 0 0 0 0 0 0 0 0 0 0 0 0 0 0 0 0 0 0 0 0 0 0 0 0 0 0 0 0 0 0 0 0 0 0
0 0 0 0 0 0 0 0 0 0 0 0 0 0 0 0 0 0 0 0 0 0 0 0 0 0 0 0 0 0 0 0 0 0 0 0 0 0 0 0 0 0 0
0 0 0 0 0 0 0 0 0 0 0 0 0 0 0 0 0 0 0 0 0 0 0 0 0 0 0 0 0 0 0 0 0 0 0 0 0 0 0 0 0 0 0
0 0 0 0 0 0 0 0 0 0 0 0 0 0 0 0 0 0 0 0 0 0 0 0 0 0 0 0 0 0 0 0 0 0 0 0 0 0 0 0 0 0 0
0 0 0 0 0 0 0 0 0 0 0 0 0 0 0 0 0 0 0 0 0 0 0 0 0 0 0 0 0 0 0 0 0 0 0 0 0 0 0 0 0 0 0
0 0 0 0 0 0 0 0 0 0 0 0 0 0 0 0 0 0 0 0 0 0 0 0 0 0 0 0 0 0 0 0 0 0 0 0 0 0 0 0 0 0 0
0 0 0 0 0 0 0 0 0 0 0 0 0 0 0 0 0 0 0 0 0 0 0 0 0 0 0 0 0 0 0 0 0 0 0 0 0 0 0 0 0 0 0
0 0 0 0 0 0 0 0 0 0 0 0 0 0 0 0 0 0 0 0 0 0 0 0 0 0 0 0 0 0 0 0 0 0 0 0 0 0 0 0 0 0 0
Height
5873 5878 5881 5883 5886 5887 5889 5889 5890 5890 5890 5890 5889 5889 5888 5888 5888 5887 5887 5886 5886 5885 5884 5882 5881 5879 5876 5874 5872 5870 5868 5867 5866 5866 5866 5867 5867 5867 5866 5865 5863 5862 5861
5861 5864 5872 5875 5878 5880 5882 5882 5883 5883 5883 5883 5883 5883 5882 5882 5881 5880 5880 5879 5879 5878 5877 5875 5873 5872 5870 5867 5865 5863 5862 5860 5860 5859 5859 5860 5861 5860 5860 5859 5858 5857 5855
5861 5857 5864 5868 5869 5871 5873 5875 5875 5875 5876 5875 5875 5875 5875 5874 5874 5873 5872 5872 5871 5870 5869 5868 5866 5864 5862 5860 5857 5855 5855 5854 5853 5853 5852 5853 5853 5853 5853 5853 5852 5851 5850
5856 5856 5858 5861 5861 5863 5865 5866 5866 5867 5867 5867 5867 5867 5867 5867 5866 5865 5865 5864 5863 5862 5861 5860 5858 5856 5853 5852 5850 5848 5846 5846 5846 5846 5846 5846 5846 5846 5846 5846 5845 5845 5844
5851 5851 5852 5852 5853 5854 5856 5857 5858 5858 5858 5858 5858 5858 5859 5858 5858 5857 5856 5855 5855 5854 5852 5851 5849 5847 5845 5843 5841 5839 5838 5838 5838 5838 5838 5839 5839 5838 5839 5839 5838 5838 5838
5843 5843 5843 5844 5845 5846 5847 5848 5849 5848 5849 5849 5849 5849 5850 5850 5849 5849 5848 5847 5846 5845 5843 5841 5839 5837 5835 5834 5832 5831 5830 5829 5829 5830 5831 5831 5831 5831 5831 5831 5831 5830 5830
5834 5835 5835 5836 5836 5837 5838 5839 5839 5840 5840 5840 5840 5840 5840 5840 5840 5839 5838 5837 5836 5835 5833 5831 5829 5827 5826 5824 5823 5822 5821 5821 5821 5822 5823 5823 5823 5823 5823 5823 5823 5823 5822
5824 5826 5827 5827 5828 5828 5829 5830 5830 5830 5831 5831 5831 5831 5831 5831 5830 5830 5828 5827 5826 5825 5823 5822 5820 5818 5816 5815 5814 5813 5812 5812 5812 5814 5814 5815 5815 5816 5816 5816 5816 5816 5816
5812 5814 5815 5817 5818 5819 5819 5820 5820 5821 5821 5821 5821 5821 5821 5821 5820 5820 5818 5817 5816 5815 5814 5812 5810 5809 5807 5806 5805 5804 5804 5803 5804 5805 5806 5807 5807 5808 5809 5808 5808 5809 5809
5799 5801 5803 5804 5806 5807 5808 5809 5809 5810 5810 5811 5811 5811 5811 5811 5810 5810 5809 5808 5807 5806 5804 5803 5801 5800 5798 5797 5796 5795 5795 5795 5796 5796 5797 5798 5799 5800 5801 5801 5801 5802 5802
5788 5789 5791 5793 5794 5796 5797 5798 5798 5799 5799 5800 5800 5801 5801 5801 5801 5800 5800 5799 5798 5797 5795 5794 5793 5791 5790 5789 5788 5787 5787 5787 5788 5788 5789 5790 5791 5793 5793 5794 5795 5794 5795
5777 5779 5781 5782 5784 5785 5787 5787 5788 5789 5789 5790 5790 5791 5791 5791 5791 5791 5791 5790 5789 5788 5787 5786 5785 5784 5783 5782 5781 5780 5780 5780 5781 5781 5782 5783 5784 5785 5786 5787 5788 5788 5787
5768 5770 5772 5773 5775 5776 5777 5778 5779 5780 5781 5781 5782 5782 5783 5783 5783 5783 5782 5781 5781 5780 5779 5778 5777 5777 5776 5775 5775 5774 5774 5774 5774 5774 5775 5776 5777 5778 5779 5780 5780 5781 5780
5759 5761 5763 5764 5766 5767 5768 5770 5771 5771 5772 5773 5773 5773 5774 5774 5774 5774 5774 5773 5772 5772 5771 5770 5770 5769 5769 5769 5768 5768 5768 5767 5768 5768 5768 5769 5770 5770 5771 5771 5772 5773 5773
5752 5754 5755 5756 5757 5758 5760 5761 5762 5763 5764 5764 5765 5765 5765 5765 5765 5765 5765 5764 5764 5763 5762 5762 5762 5761 5761 5760 5760 5760 5760 5760 5760 5760 5760 5760 5761 5761 5762 5762 5763 5764 5765
5744 5746 5747 5748 5749 5750 5751 5752 5753 5754 5755 5756 5756 5756 5756 5756 5756 5756 5756 5755 5754 5754 5753 5753 5752 5751 5751 5751 5750 5750 5750 5750 5750 5750 5751 5751 5751 5752 5752 5753 5753 5754 5756
5736 5738 5739 5740 5741 5742 5743 5744 5745 5746 5746 5747 5748 5748 5748 5747 5747 5747 5746 5745 5744 5743 5742 5742 5741 5741 5740 5740 5739 5739 5739 5739 5739 5739 5740 5740 5741 5741 5742 5742 5743 5744 5745
5728 5730 5731 5733 5734 5734 5736 5737 5737 5737 5738 5739 5739 5739 5739 5739 5738 5737 5736 5735 5734 5733 5732 5731 5730 5729 5728 5728 5727 5727 5726 5726 5727 5727 5728 5728 5729 5730 5730 5731 5733 5734 5735
5721 5722 5724 5725 5726 5728 5728 5729 5730 5730 5730 5731 5731 5731 5731 5730 5729 5728 5727 5726 5725 5723 5722 5721 5719 5718 5717 5716 5715 5714 5714 5714 5714 5715 5715 5716 5717 5718 5719 5720 5721 5722 5724
5715 5716 5718 5719 5720 5721 5722 5722 5723 5723 5723 5724 5724 5724 5723 5722 5722 5720 5719 5717 5716 5714 5713 5711 5710 5708 5707 5706 5704 5703 5703 5702 5702 5702 5703 5703 5704 5706 5707 5708 5709 5711 5713
5711 5712 5712 5713 5714 5715 5716 5717 5717 5717 5718 5718 5717 5717 5716 5716 5714 5713 5712 5710 5708 5706 5704 5703 5702 5700 5698 5697 5695 5694 5693 5692 5691 5691 5692 5692 5692 5694 5695 5696 5698 5699 5701
5707 5708 5708 5709 5710 5710 5711 5711 5712 5712 5712 5712 5712 5711 5710 5709 5708 5706 5705 5703 5701 5699 5697 5695 5693 5692 5690 5689 5687 5686 5685 5683 5682 5682 5682 5682 5682 5683 5684 5685 5686 5688 5690
5705 5705 5705 5706 5706 5706 5707 5707 5707 5707 5707 5707 5706 5706 5705 5703 5702 5700 5698 5696 5694 5692 5689 5687 5685 5683 5681 5680 5679 5678 5676 5675 5674 5673 5673 5672 5672 5673 5673 5674 5675 5677 5678
5703 5702 5703 5703 5703 5703 5703 5703 5703 5703 5703 5702 5702 5701 5699 5698 5696 5694 5692 5689 5687 5684 5681 5679 5676 5674 5672 5670 5669 5668 5667 5666 5665 5665 5665 5664 5664 5664 5665 5665 5666 5666 5667
5701 5700 5700 5700 5700 5700 5700 5700 5700 5699 5699 5698 5697 5696 5694 5692 5690 5688 5685 5682 5679 5676 5673 5670 5667 5664 5662 5660 5659 5657 5656 5655 5655 5655 5655 5655 5655 5655 5656 5656 5656 5657 5658
5699 5699 5698 5698 5698 5697 5697 5697 5696 5696 5695 5694 5692 5691 5689 5687 5684 5681 5678 5675 5671 5668 5664 5661 5658 5655 5653 5650 5648 5647 5646 5645 5644 5644 5644 5645 5645 5646 5646 5647 5648 5648 5649
Wind_Speed
39 39 37 36 35 35 35 35 36 37 37 37 36 37 36 36 37 38 39 39 40 40 41 41 41 40 39 39 38 37 36 35 32 29 27 26 24 24 23 22 22 22 23
38 37 36 37 37 37 37 38 39 39 40 40 40 39 39 38 39 40 41 42 42 43 43 43 43 42 41 40 39 38 36 34 32 30 29 27 25 24 23 23 23 23 24
43 38 38 38 40 40 40 41 41 41 42 42 42 42 41 41 41 42 42 43 44 45 45 45 45 45 44 42 40 38 37 35 33 32 30 28 26 26 25 24 24 24 25
45 44 43 42 41 41 42 43 43 44 44 44 43 43 42 42 42 43 43 44 45 46 46 46 47 46 45 43 41 39 39 37 34 34 33 30 28 27 26 26 25 25 25
44 44 43 43 44 44 45 45 45 45 45 44 44 43 43 43 43 44 45 46 47 47 47 47 47 47 45 43 41 39 38 37 36 35 34 32 30 29 28 27 27 27 26
40 42 43 43 44 45 45 45 45 45 45 45 44 44 44 44 45 46 47 48 48 48 47 47 47 46 44 42 40 38 37 36 36 36 36 34 33 31 30 28 28 28 28
38 38 40 42 43 44 44 44 45 45 45 45 45 45 45 46 47 48 49 49 49 47 46 45 45 44 42 40 39 37 36 36 35 36 36 35 34 32 30 29 28 29 29
44 43 42 42 43 44 44 45 45 46 46 46 47 47 48 48 49 49 49 49 48 46 45 44 43 42 41 39 38 36 35 35 35 37 36 34 33 32 30 29 28 28 28
50 49 48 47 46 46 47 47 48 48 49 49 50 50 50 50 49 49 48 47 45 44 44 43 42 40 38 37 36 35 35 35 36 36 35 33 31 30 28 27 28 27 27
52 51 49 48 47 47 47 48 49 50 50 51 51 50 50 49 47 46 45 43 43 43 42 40 38 36 36 35 34 34 34 34 34 34 34 32 29 27 27 26 27 27 26
50 49 47 45 44 44 44 45 46 46 47 47 47 47 46 44 43 42 41 41 41 39 38 36 35 34 33 33 31 31 31 31 32 32 31 29 27 27 26 26 26 27 26
40 39 40 40 39 39 40 40 40 41 41 41 40 40 40 39 38 38 38 38 37 35 35 34 33 32 30 29 29 29 28 28 27 27 26 26 26 26 26 26 26 26 27
36 35 34 35 35 36 37 37 37 37 37 37 37 37 37 36 36 36 36 35 34 33 33 32 32 31 29 28 27 26 26 26 26 26 26 26 27 28 28 27 27 27 27
32 32 32 32 34 35 35 36 36 36 36 37 37 37 37 36 36 35 35 34 34 33 33 33 33 32 31 31 30 30 29 28 29 29 29 29 30 30 30 30 29 29 29
28 29 31 32 33 34 35 36 36 36 36 36 36 36 36 36 36 36 36 36 36 36 35 35 36 35 35 35 35 34 34 34 33 33 33 33 33 33 32 32 32 31 31
28 28 30 32 33 34 35 37 37 37 37 36 37 37 37 37 37 37 38 38 39 39 39 39 39 40 40 40 40 40 40 39 39 39 38 38 37 36 36 35 34 34 33
26 26 28 30 31 32 33 35 37 37 38 37 37 37 37 38 38 39 39 40 40 41 41 42 42 43 43 44 44 45 45 44 44 43 43 42 41 41 39 38 37 36 35
24 25 26 26 27 28 30 32 33 33 35 35 35 35 36 37 38 38 39 39 39 40 40 41 42 42 43 44 44 45 46 46 46 46 45 44 43 42 41 40 39 37 37
21 22 23 24 25 25 25 26 28 29 30 30 31 32 33 34 34 35 36 36 37 38 38 39 39 40 41 41 41 42 43 43 43 43 43 42 41 41 40 39 38 37 37
18 19 20 21 21 22 22 23 23 24 24 25 26 26 28 29 30 31 33 34 35 35 35 35 36 36 36 36 36 36 37 38 39 39 38 38 38 38 38 38 38 38 37
16 16 16 17 18 18 18 19 20 20 21 21 23 24 25 26 28 29 30 31 32 33 32 32 32 32 32 31 30 31 32 33 34 34 34 35 36 36 37 37 38 38 38
14 15 15 16 16 16 17 17 18 18 19 19 20 22 23 24 25 27 28 29 31 31 32 32 32 32 31 31 30 29 30 30 31 31 31 32 33 34 35 37 38 38 38
12 12 13 14 14 14 15 16 16 17 17 18 19 20 21 23 24 26 27 29 30 31 32 33 33 33 33 33 33 32 31 30 30 29 29 29 30 30 31 33 35 37 38
10 10 10 11 11 12 12 13 14 14 15 17 18 19 20 22 23 25 26 28 29 31 32 33 34 34 35 35 35 34 34 32 31 30 30 29 29 28 28 29 30 32 33
8 8 8 9 9 10 10 11 12 13 14 16 17 18 20 22 24 26 27 29 30 31 32 33 33 34 34 34 34 35 34 34 33 34 32 31 30 29 28 28 28 28 28
7 7 8 8 9 9 10 11 12 13 15 16 17 19 21 23 25 27 29 30 31 32 32 32 32 33 33 33 34 34 35 35 36 35 35 34 32 31 30 29 28 28 28
Wind_Direction
251 252 256 259 262 265 268 270 272 274 276 278 280 282 284 285 286 287 288 290 292 295 300 300 303 307 308 307 304 298 291 286 281 275 274 275 279 282 285 288 290 289 290
259 252 256 262 263 264 267 269 270 272 274 276 278 280 282 282 282 283 284 287 290 293 295 299 300 304 306 307 305 301 295 288 280 276 274 273 277 280 282 283 286 287 288
261 260 262 263 264 264 266 268 269 271 273 274 276 278 279 279 279 281 283 285 288 291 293 296 299 300 303 303 301 298 293 288 282 277 271 272 274 278 281 282 282 284 286
261 265 267 266 265 266 266 268 270 271 272 273 274 275 276 277 279 280 283 285 287 290 292 294 296 297 298 299 297 296 292 287 281 276 270 269 272 275 278 280 280 281 284
263 264 264 264 264 265 266 267 269 270 272 272 273 274 275 277 279 281 283 285 287 289 291 292 293 294 294 294 293 292 290 284 279 273 268 266 270 273 275 278 280 282 283
262 262 262 262 263 264 265 266 267 268 270 272 273 274 276 277 279 281 283 285 287 288 290 290 290 290 291 290 289 287 285 281 276 270 266 265 269 271 273 276 279 283 285
264 264 263 262 263 263 264 265 266 268 270 271 272 274 276 278 279 281 283 285 286 287 288 288 287 287 287 285 283 281 279 278 271 266 264 265 269 269 271 275 279 282 285
266 266 265 263 263 263 264 265 266 268 269 271 272 274 276 278 280 281 282 284 284 285 286 287 286 285 284 282 278 277 275 274 266 262 263 265 266 267 270 274 278 281 284
267 267 265 263 262 263 263 265 266 267 269 271 272 274 275 277 278 280 281 282 283 284 285 286 285 284 281 279 274 273 270 268 263 261 261 263 264 268 270 274 278 281 282
264 265 265 263 263 263 264 265 266 267 268 270 271 272 274 276 277 278 279 280 281 283 284 285 284 282 279 274 272 270 267 263 260 258 262 263 266 268 270 274 277 279 281
262 264 262 262 262 262 263 264 265 266 267 268 270 271 272 273 275 276 278 279 282 283 283 283 282 281 279 277 273 271 269 265 261 261 263 265 266 268 270 273 275 278 280
262 262 261 259 260 262 262 263 264 266 267 268 269 270 271 273 274 275 277 279 282 282 281 281 280 278 279 280 278 275 270 267 265 265 265 267 268 270 271 273 274 276 279
263 261 260 259 260 261 262 262 263 265 266 267 268 270 271 272 274 275 277 279 280 281 281 280 278 277 279 281 281 279 275 272 271 270 270 271 272 273 274 273 274 276 278
263 259 257 260 261 261 261 262 262 264 265 266 268 269 270 271 272 274 275 276 278 279 279 278 278 277 278 279 279 279 278 278 277 275 275 276 276 276 276 276 275 275 276
270 265 262 262 263 262 262 261 262 264 265 265 266 267 268 270 271 273 274 275 276 277 277 277 276 275 276 276 276 277 278 278 277 277 277 278 279 278 278 277 276 275 274
274 269 265 265 263 262 261 261 262 263 264 265 266 267 268 270 272 273 274 275 276 276 277 276 276 275 274 274 274 275 277 276 276 276 276 277 279 278 278 278 277 276 274
268 267 264 264 262 261 262 263 262 262 263 264 265 267 269 271 273 275 277 277 278 278 278 278 277 276 276 276 275 275 275 275 276 276 276 275 276 277 277 278 277 276 274
263 262 262 262 263 264 265 266 265 264 264 265 266 269 271 273 275 277 278 279 280 281 282 281 280 279 279 279 278 277 276 276 275 275 275 275 275 275 275 274 274 272 271
259 260 262 263 264 266 266 266 267 268 268 268 270 271 273 276 278 280 282 283 284 285 285 285 285 284 283 282 281 280 278 277 276 275 275 274 272 272 271 269 268 266 265
261 262 262 263 264 265 266 266 268 270 271 272 274 275 278 280 281 283 285 286 287 288 288 288 288 287 287 286 285 282 280 278 276 274 273 271 268 267 265 263 262 260 259
266 266 264 263 264 265 266 268 270 272 274 275 276 279 281 283 285 286 288 289 290 290 290 289 289 288 288 288 287 285 282 280 277 275 272 269 266 264 262 260 258 257 255
269 267 265 265 265 267 268 270 272 274 277 278 280 283 285 287 288 289 290 290 290 290 289 289 289 287 286 286 285 285 283 281 279 277 273 269 266 264 262 259 258 257 255
275 271 270 269 269 269 271 273 275 278 280 282 284 287 289 291 291 291 292 292 291 290 289 288 287 286 285 284 282 281 280 278 277 276 274 272 269 267 264 261 260 258 257
279 275 273 273 274 274 276 277 280 282 284 286 288 291 293 294 295 295 295 294 293 292 291 289 288 286 284 283 280 278 277 276 275 274 274 272 271 269 267 266 263 261 259
282 279 277 277 277 279 280 282 284 286 289 291 293 295 297 298 299 299 299 299 298 296 294 292 290 288 286 284 281 279 277 275 274 274 274 272 269 268 268 267 266 264 263
281 280 280 280 281 282 285 287 289 291 293 295 297 299 301 302 304 304 304 304 303 302 300 297 295 292 289 286 283 281 279 276 275 273 271 270 270 269 267 267 267 265 263